Flag for U.S.A. Weather past 2 weeks in Stamford, Connecticut, U.S.A.

Now
78 °F

Partly sunny.


Feels Like: 80 °F
Forecast: 67 / 80 °F
Wind: 12 mph from Southeast

Location: Westchester County Airport

Current Time: Sep 4, 2015 at 1:08:32 PM

Latest Report: Sep 4, 2015 at 11:56 AM


Visibility: 8 mi

Pressure: 30.08 "Hg

Humidity: 69%

Dew point: 67 °F

Location of StamfordLocation

Historic Weather in Stamford — Graph

°F

Stamford temperature yesterday

Maximum temperature yesterday: 92 °F (at 3:56 PM)
Minimum temperature yesterday: 67 °F (at 4:56 AM)
Average temperature yesterday: 78 °F

Past Weeks' High & Low Weather Summary

 TemperatureHumidityPressure
High92 °F (Sep 3, 3:56 PM)97% (Aug 21, 2:56 AM)30.21 "Hg (Aug 21, 2:56 AM)
Low59 °F (Aug 28, 5:56 AM)30% (Sep 3, 3:56 PM)29.79 "Hg (Aug 25, 4:56 PM)
Average74 °F67%29.99 "Hg
* Reported Aug 20 11:56 AM — Sep 4 11:56 AM, Stamford, Weather by CustomWeather, © 2015

Note: Actual official high and low records may vary slightly from our data, if they occured in-between our weather recording intervals... More about our weather records

Advertising

Stamford weather history for previous 24 hours

 ConditionsComfort  
Time TempWeatherWind HumidityBarometerVisibility
11:56 AM
Fri, Sep 4
78 °FPartly sunny.12 mph69%30.08 "Hg8 mi
10:56 AM78 °FPartly sunny.8 mph69%30.07 "Hg8 mi
9:56 AM76 °FBroken clouds.6 mph77%30.06 "Hg8 mi
8:56 AM73 °FBroken clouds.7 mph81%30.04 "Hg7 mi
7:56 AM73 °FScattered clouds.6 mph79%30.02 "Hg8 mi
6:56 AM72 °FPassing clouds.6 mph81%29.98 "Hg8 mi
5:56 AM72 °FClear.7 mph81%29.95 "Hg9 mi
4:56 AM73 °FClear.7 mph79%29.92 "Hg8 mi
3:56 AM73 °FClear.6 mph81%29.91 "Hg8 mi
2:56 AM72 °FClear.3 mph81%29.91 "Hg8 mi
1:56 AM73 °FClear.5 mph79%29.90 "Hg8 mi
12:56 AM72 °FClear.5 mph76%29.90 "Hg7 mi
11:56 PM
Thu, Sep 3
74 °FClear.3 mph71%29.88 "Hg8 mi
10:56 PM75 °FClear.No wind69%29.88 "Hg8 mi
9:56 PM74 °FClear.No wind79%29.88 "Hg7 mi
8:56 PM74 °FClear.No wind76%29.87 "Hg7 mi
7:56 PM78 °FLight rain. Sunny.No wind64%29.84 "Hg8 mi
6:56 PM81 °FSunny.3 mph58%29.82 "Hg7 mi
5:56 PM88 °FSunny.No wind42%29.82 "Hg8 mi
4:56 PM91 °FSunny.6 mph32%29.81 "Hg8 mi
3:56 PM92 °FSunny.5 mph30%29.82 "Hg8 mi
2:56 PM90 °FSunny.7 mph34%29.82 "Hg8 mi
1:56 PM90 °FPassing clouds.7 mph41%29.83 "Hg7 mi
Weather by CustomWeather, © 2015

See weather overviewHow to use our weather pages